Location: ???????????
(55.5758°N, 38.4970°E)
Time: 18:04:35
(UTC+00:00)

IRS-1D - Pass Details

Date: 15 November 2025
Orbit: 736 x 811 km, 98.8° (Epoch: 14 December)

Event Time Altitude Azimuth Distance (km) Brightness Sun altitude
Rises 03:48:22 0° 13° (NNE) 3,206 6.7 -10.0°
Reaches altitude 10° 03:50:50 10° 4° (N) 2,270 5.8 -9.7°
Maximum altitude 03:55:17 34° 301° (WNW) 1,207 4.0 -9.1°
Drops below altitude 10° 03:59:41 10° 237° (WSW) 2,243 5.6 -8.5°
Sets 04:02:06 0° 229° (SW) 3,162 6.4 -8.2°
